Weather History for Montijo, Portugal

Change the Weather History Date:

Thursday, February 7, 2013

  Actual Average (LPPT) Record (LPPT)
Temperature  
Mean Temperature 51 °F -  
Max Temperature 58 °F 59 °F 66 °F (1998)
Min Temperature 44 °F 47 °F 37 °F (2005)
Degree Days  
Heating Degree Days 14    
Growing Degree Days 1 (Base 50)    
Moisture  
Dew Point 40 °F    
Average Humidity 69    
Maximum Humidity 87    
Minimum Humidity 40    
Precipitation  
Precipitation 0.00 in - - ()
Sea Level Pressure  
Sea Level Pressure 30.37 in    
Wind  
Wind Speed 10 mph ()    
Max Wind Speed 16 mph    
Max Gust Speed -    
Visibility 12.0 miles    
Events      
Averages and records for this station are not official NWS values.
T = Trace of Precipitation, MM = Missing Value Source: Averaged Metar Reports

Daily Weather History Graph

Daily Weather History Graph

Search for Another Location

Airport:

Trip Planner

Search our weather history database for the weather conditions in past years. The results will help you decide how hot, cold, wet, or windy it might be!

Date:

Astronomy

Feb. 07, 2013 Rise Set
Actual Time 7:36 AM WET 6:04 PM WET
Civil Twilight 7:08 AM WET 6:32 PM WET
Nautical Twilight 6:37 AM WET 7:04 PM WET
Astronomical Twilight 6:05 AM WET 7:35 PM WET
Moon 5:02 AM WET (2/7) 3:15 PM WET (2/7)
Length of Visible Light 11h 24m
Length of Day
10h 28m
Waning Crescent, 10% of the Moon is Illuminated
Feb 7
Waning Crescent
Feb 10
New
Feb 17
First Quarter
Feb 25
Full
Mar 4
Last Quarter

Hourly Weather History & Observations

Time (WET) Temp. Dew Point Humidity Pressure Visibility Wind Dir Wind Speed Gust Speed Precip Events Conditions
12:00 AM 49 °F 44 °F 79% 30.39 in 12 mi North 15.7 mph - -   Partly Cloudy
12:00 AM 50.0 °F 44.6 °F 82% 30.36 in - North - - N/A   Scattered Clouds
1:00 AM 50.0 °F 46.4 °F 87% 30.36 in - North - - N/A   Scattered Clouds
2:00 AM 48.2 °F 44.6 °F 87% 30.36 in - North - - N/A   Partly Cloudy
3:00 AM 48.2 °F 42.8 °F 82% 30.36 in - North - - N/A   Partly Cloudy
4:00 AM 46.4 °F 42.8 °F 87% 30.36 in - North - - N/A   Partly Cloudy
5:00 AM 46.4 °F 41.0 °F 81% 30.36 in - North - - N/A   Partly Cloudy
6:00 AM 45 °F 41 °F 80% 30.39 in 12 mi North 15.7 mph - -   Scattered Clouds
6:00 AM 44.6 °F 41.0 °F 87% 30.36 in - North - - N/A   Partly Cloudy
7:00 AM 44.6 °F 39.2 °F 81% 30.39 in - North - - N/A   Clear
8:00 AM 44.6 °F 37.4 °F 76% 30.39 in - North - - N/A   Clear
9:00 AM 50.0 °F 37.4 °F 62% 30.39 in - North - - N/A   Clear
10:00 AM 50.0 °F 41.0 °F 71% 30.39 in - North - - N/A   Clear
11:00 AM 53.6 °F 35.6 °F 51% 30.42 in - North - - N/A   Clear
12:00 PM 55 °F 38 °F 40% 30.42 in 12 mi North 11.2 mph - -  
12:00 PM 55.4 °F 37.4 °F 51% 30.42 in - North - - N/A   Clear
1:00 PM 57.2 °F 39.2 °F 51% 30.39 in - North - - N/A   Clear
2:00 PM 57.2 °F 37.4 °F 48% 30.36 in - North - - N/A   Clear
3:00 PM 59.0 °F 35.6 °F 42% 30.36 in - North - - N/A   Clear
4:00 PM 59.0 °F 39.2 °F 48% 30.36 in - North - - N/A   Clear
5:00 PM 55.4 °F 41.0 °F 58% 30.33 in - North - - N/A   Clear
6:00 PM 52 °F 40 °F 52% 30.35 in 12 mi North 11.2 mph - -  
6:00 PM 51.8 °F 39.2 °F 62% 30.33 in - North - - N/A   Clear
7:00 PM 50.0 °F 41.0 °F 71% 30.36 in - North - - N/A   Clear
8:00 PM 48.2 °F 41.0 °F 76% 30.33 in - North - - N/A   Clear
9:00 PM 48.2 °F 41.0 °F 76% 30.36 in - North - - N/A   Clear
10:00 PM 46.4 °F 41.0 °F 81% 30.36 in - North - - N/A   Clear
11:00 PM 46.4 °F 41.0 °F 81% 30.33 in - North - - N/A   Clear